Time,TemperatureF,DewpointF,PressureIn,WindDirection,WindDirectionDegrees,WindSpeedMPH,WindSpeedGustMPH,Humidity,HourlyPrecipIn,Conditions,Clouds,dailyrainin,SolarRadiationWatts/m^2,SoftwareType,DateUTC
2013-03-02 00:01:00,47.0,30.0,-100.00,NW,319,3.0,6.0,51,0.00,,,0.00,0.000000,,2013-03-02 06:01:00,
2013-03-02 00:32:00,42.0,29.0,-100.00,SW,222,1.0,3.0,60,0.00,,,0.00,0.000000,,2013-03-02 06:32:00,
2013-03-02 00:42:00,42.0,29.0,-100.00,SW,222,1.0,3.0,60,0.00,,,0.00,0.000000,,2013-03-02 06:42:00,
2013-03-02 00:52:00,42.0,29.0,-100.00,SW,222,1.0,3.0,60,0.00,,,0.00,0.000000,,2013-03-02 06:52:00,
2013-03-02 01:01:00,42.0,29.0,-100.00,SW,222,1.0,3.0,60,0.00,,,0.00,0.000000,,2013-03-02 07:01:00,
2013-03-02 01:22:00,42.0,32.0,-100.00,NW,310,2.0,4.0,67,0.00,,,0.00,0.000000,,2013-03-02 07:22:00,
2013-03-02 01:32:00,42.0,32.0,-100.00,NW,310,2.0,4.0,67,0.00,,,0.00,0.000000,,2013-03-02 07:32:00,
2013-03-02 01:42:00,42.0,32.0,-100.00,NW,310,2.0,4.0,67,0.00,,,0.00,0.000000,,2013-03-02 07:42:00,
2013-03-02 01:52:00,42.0,32.0,-100.00,NW,310,2.0,4.0,67,0.00,,,0.00,0.000000,,2013-03-02 07:52:00,
2013-03-02 02:01:00,42.0,32.0,-100.00,NW,310,2.0,4.0,67,0.00,,,0.00,0.000000,,2013-03-02 08:01:00,
2013-03-02 02:32:00,44.0,31.0,-100.00,NW,309,3.0,7.0,59,0.00,,,0.00,0.000000,,2013-03-02 08:32:00,
2013-03-02 02:43:00,44.0,31.0,-100.00,NW,309,3.0,7.0,59,0.00,,,0.00,0.000000,,2013-03-02 08:43:00,
2013-03-02 02:52:00,44.0,31.0,-100.00,NW,309,3.0,7.0,59,0.00,,,0.00,0.000000,,2013-03-02 08:52:00,
2013-03-02 03:01:00,44.0,31.0,-100.00,NW,309,3.0,7.0,59,0.00,,,0.00,0.000000,,2013-03-02 09:01:00,
2013-03-02 03:22:00,43.0,31.0,-100.00,NW,321,4.0,6.0,62,0.00,,,0.00,0.000000,,2013-03-02 09:22:00,
2013-03-02 03:32:00,43.0,31.0,-100.00,NW,321,4.0,6.0,62,0.00,,,0.00,0.000000,,2013-03-02 09:32:00,
2013-03-02 03:42:00,43.0,31.0,-100.00,NW,321,4.0,6.0,62,0.00,,,0.00,0.000000,,2013-03-02 09:42:00,
2013-03-02 03:52:00,43.0,31.0,-100.00,NW,321,4.0,6.0,62,0.00,,,0.00,0.000000,,2013-03-02 09:52:00,
2013-03-02 04:01:00,43.0,31.0,-100.00,NW,321,4.0,6.0,62,0.00,,,0.00,0.000000,,2013-03-02 10:01:00,
2013-03-02 04:32:00,40.0,30.0,-100.00,NNW,343,3.0,6.0,67,0.00,,,0.00,0.000000,,2013-03-02 10:32:00,
2013-03-02 04:43:00,40.0,30.0,-100.00,NNW,343,3.0,6.0,67,0.00,,,0.00,0.000000,,2013-03-02 10:43:00,
2013-03-02 04:52:00,40.0,30.0,-100.00,NNW,343,3.0,6.0,67,0.00,,,0.00,0.000000,,2013-03-02 10:52:00,
2013-03-02 05:01:00,40.0,30.0,-100.00,NNW,343,3.0,6.0,67,0.00,,,0.00,0.000000,,2013-03-02 11:01:00,
2013-03-02 05:32:00,39.0,30.0,-100.00,NNW,342,4.0,7.0,69,0.00,,,0.00,0.000000,,2013-03-02 11:32:00,
2013-03-02 05:42:00,39.0,30.0,-100.00,NNW,342,4.0,7.0,69,0.00,,,0.00,0.000000,,2013-03-02 11:42:00,
2013-03-02 05:52:00,39.0,30.0,-100.00,NNW,342,4.0,7.0,69,0.00,,,0.00,0.000000,,2013-03-02 11:52:00,
2013-03-02 06:02:00,39.0,30.0,-100.00,NNW,342,4.0,7.0,69,0.00,,,0.00,0.000000,,2013-03-02 12:02:00,
2013-03-02 06:22:00,38.0,29.0,-100.00,NNW,344,4.0,7.0,70,0.00,,,0.00,0.000000,,2013-03-02 12:22:00,
2013-03-02 06:33:00,38.0,29.0,-100.00,NNW,344,4.0,7.0,70,0.00,,,0.00,0.000000,,2013-03-02 12:33:00,
2013-03-02 06:43:00,38.0,29.0,-100.00,NNW,344,4.0,7.0,70,0.00,,,0.00,0.000000,,2013-03-02 12:43:00,
2013-03-02 06:53:00,38.0,29.0,-100.00,NNW,344,4.0,7.0,70,0.00,,,0.00,0.000000,,2013-03-02 12:53:00,
2013-03-02 07:01:00,38.0,29.0,-100.00,NNW,344,4.0,7.0,70,0.00,,,0.00,0.000000,,2013-03-02 13:01:00,
2013-03-02 07:22:00,38.0,29.0,-100.00,NNW,344,6.0,9.0,70,0.00,,,0.00,3.000000,,2013-03-02 13:22:00,
2013-03-02 07:32:00,38.0,29.0,-100.00,NNW,344,6.0,9.0,70,0.00,,,0.00,3.000000,,2013-03-02 13:32:00,
2013-03-02 07:42:00,38.0,29.0,-100.00,NNW,344,6.0,9.0,70,0.00,,,0.00,3.000000,,2013-03-02 13:42:00,
2013-03-02 07:52:00,38.0,29.0,-100.00,NNW,344,6.0,9.0,70,0.00,,,0.00,3.000000,,2013-03-02 13:52:00,
2013-03-02 08:01:00,38.0,29.0,-100.00,NNW,344,6.0,9.0,70,0.00,,,0.00,3.000000,,2013-03-02 14:01:00,
2013-03-02 08:22:00,41.0,29.0,-100.00,North,358,9.0,15.0,62,0.00,,,0.00,131.000000,,2013-03-02 14:22:00,
2013-03-02 08:32:00,41.0,29.0,-100.00,North,358,9.0,15.0,62,0.00,,,0.00,131.000000,,2013-03-02 14:32:00,
2013-03-02 08:42:00,41.0,29.0,-100.00,North,358,9.0,15.0,62,0.00,,,0.00,131.000000,,2013-03-02 14:42:00,
2013-03-02 08:52:00,41.0,29.0,-100.00,North,358,9.0,15.0,62,0.00,,,0.00,131.000000,,2013-03-02 14:52:00,
2013-03-02 09:02:00,41.0,29.0,-100.00,North,358,9.0,15.0,62,0.00,,,0.00,131.000000,,2013-03-02 15:02:00,
2013-03-02 09:32:00,43.0,28.0,-100.00,NNW,338,11.0,19.0,55,0.00,,,0.00,407.000000,,2013-03-02 15:32:00,
2013-03-02 09:42:00,43.0,28.0,-100.00,NNW,338,11.0,19.0,55,0.00,,,0.00,407.000000,,2013-03-02 15:42:00,
2013-03-02 09:52:00,43.0,28.0,-100.00,NNW,338,11.0,19.0,55,0.00,,,0.00,407.000000,,2013-03-02 15:52:00,
2013-03-02 10:01:00,43.0,28.0,-100.00,NNW,338,11.0,19.0,55,0.00,,,0.00,407.000000,,2013-03-02 16:01:00,
2013-03-02 10:22:00,46.0,25.0,-100.00,NNW,336,11.0,17.0,44,0.00,,,0.00,656.000000,,2013-03-02 16:22:00,
2013-03-02 10:32:00,46.0,25.0,-100.00,NNW,336,11.0,17.0,44,0.00,,,0.00,656.000000,,2013-03-02 16:32:00,
2013-03-02 10:42:00,46.0,25.0,-100.00,NNW,336,11.0,17.0,44,0.00,,,0.00,656.000000,,2013-03-02 16:42:00,
2013-03-02 10:52:00,46.0,25.0,-100.00,NNW,336,11.0,17.0,44,0.00,,,0.00,656.000000,,2013-03-02 16:52:00,
2013-03-02 11:01:00,46.0,25.0,-100.00,NNW,336,11.0,17.0,44,0.00,,,0.00,656.000000,,2013-03-02 17:01:00,
2013-03-02 11:32:00,48.0,23.0,-100.00,NNW,342,12.0,20.0,37,0.00,,,0.00,831.000000,,2013-03-02 17:32:00,
2013-03-02 11:42:00,48.0,23.0,-100.00,NNW,342,12.0,20.0,37,0.00,,,0.00,831.000000,,2013-03-02 17:42:00,
2013-03-02 11:52:00,48.0,23.0,-100.00,NNW,342,12.0,20.0,37,0.00,,,0.00,831.000000,,2013-03-02 17:52:00,
2013-03-02 12:02:00,48.0,23.0,-100.00,NNW,342,12.0,20.0,37,0.00,,,0.00,831.000000,,2013-03-02 18:02:00,
2013-03-02 12:32:00,52.0,22.0,-100.00,NNW,339,12.0,19.0,31,0.00,,,0.00,972.000000,,2013-03-02 18:32:00,
2013-03-02 12:42:00,52.0,22.0,-100.00,NNW,339,12.0,19.0,31,0.00,,,0.00,972.000000,,2013-03-02 18:42:00,
2013-03-02 12:52:00,52.0,22.0,-100.00,NNW,339,12.0,19.0,31,0.00,,,0.00,972.000000,,2013-03-02 18:52:00,
2013-03-02 13:01:00,52.0,22.0,-100.00,NNW,339,12.0,19.0,31,0.00,,,0.00,972.000000,,2013-03-02 19:01:00,
2013-03-02 13:32:00,56.0,23.0,-100.00,NW,317,11.0,22.0,28,0.00,,,0.00,1013.000000,,2013-03-02 19:32:00,
2013-03-02 13:42:00,56.0,23.0,-100.00,NW,317,11.0,22.0,28,0.00,,,0.00,1013.000000,,2013-03-02 19:42:00,
2013-03-02 13:52:00,56.0,23.0,-100.00,NW,317,11.0,22.0,28,0.00,,,0.00,1013.000000,,2013-03-02 19:52:00,
2013-03-02 14:01:00,56.0,23.0,-100.00,NW,317,11.0,22.0,28,0.00,,,0.00,1013.000000,,2013-03-02 20:01:00,
2013-03-02 14:22:00,56.0,19.0,-100.00,NNW,344,13.0,21.0,23,0.00,,,0.00,970.000000,,2013-03-02 20:22:00,
2013-03-02 14:32:00,56.0,19.0,-100.00,NNW,344,13.0,21.0,23,0.00,,,0.00,970.000000,,2013-03-02 20:32:00,
2013-03-02 14:42:00,56.0,19.0,-100.00,NNW,344,13.0,21.0,23,0.00,,,0.00,970.000000,,2013-03-02 20:42:00,
2013-03-02 15:02:00,56.0,19.0,-100.00,NNW,344,13.0,21.0,23,0.00,,,0.00,970.000000,,2013-03-02 21:02:00,
2013-03-02 15:32:00,58.0,17.0,-100.00,NNW,331,15.0,25.0,20,0.00,,,0.00,849.000000,,2013-03-02 21:32:00,
2013-03-02 15:42:00,58.0,17.0,-100.00,NNW,331,15.0,25.0,20,0.00,,,0.00,849.000000,,2013-03-02 21:42:00,
2013-03-02 15:52:00,58.0,17.0,-100.00,NNW,331,15.0,25.0,20,0.00,,,0.00,849.000000,,2013-03-02 21:52:00,
2013-03-02 16:02:00,58.0,17.0,-100.00,NNW,331,15.0,25.0,20,0.00,,,0.00,849.000000,,2013-03-02 22:02:00,
2013-03-02 16:32:00,59.0,17.0,-100.00,NNW,339,12.0,22.0,19,0.00,,,0.00,659.000000,,2013-03-02 22:32:00,
2013-03-02 16:42:00,59.0,17.0,-100.00,NNW,339,12.0,22.0,19,0.00,,,0.00,659.000000,,2013-03-02 22:42:00,
2013-03-02 16:52:00,59.0,17.0,-100.00,NNW,339,12.0,22.0,19,0.00,,,0.00,659.000000,,2013-03-02 22:52:00,
2013-03-02 17:01:00,59.0,17.0,-100.00,NNW,339,12.0,22.0,19,0.00,,,0.00,659.000000,,2013-03-02 23:01:00,
2013-03-02 17:32:00,59.0,18.0,-100.00,NNW,344,9.0,22.0,20,0.00,,,0.00,415.000000,,2013-03-02 23:32:00,
2013-03-02 17:42:00,59.0,18.0,-100.00,NNW,344,9.0,22.0,20,0.00,,,0.00,415.000000,,2013-03-02 23:42:00,
2013-03-02 17:52:00,59.0,18.0,-100.00,NNW,344,9.0,22.0,20,0.00,,,0.00,415.000000,,2013-03-02 23:52:00,
2013-03-02 18:02:00,59.0,18.0,-100.00,NNW,344,9.0,22.0,20,0.00,,,0.00,415.000000,,2013-03-03 00:02:00,
2013-03-02 18:32:00,58.0,19.0,-100.00,North,352,7.0,17.0,22,0.00,,,0.00,163.000000,,2013-03-03 00:32:00,
2013-03-02 18:42:00,58.0,19.0,-100.00,North,352,7.0,17.0,22,0.00,,,0.00,163.000000,,2013-03-03 00:42:00,
2013-03-02 18:52:00,58.0,19.0,-100.00,North,352,7.0,17.0,22,0.00,,,0.00,163.000000,,2013-03-03 00:52:00,
2013-03-02 19:01:00,58.0,19.0,-100.00,North,352,7.0,17.0,22,0.00,,,0.00,163.000000,,2013-03-03 01:01:00,
2013-03-02 19:32:00,51.0,19.0,-100.00,ENE,64,2.0,8.0,28,0.00,,,0.00,8.000000,,2013-03-03 01:32:00,
2013-03-02 19:42:00,51.0,19.0,-100.00,ENE,64,2.0,8.0,28,0.00,,,0.00,8.000000,,2013-03-03 01:42:00,
2013-03-02 19:52:00,51.0,19.0,-100.00,ENE,64,2.0,8.0,28,0.00,,,0.00,8.000000,,2013-03-03 01:52:00,
2013-03-02 20:01:00,51.0,19.0,-100.00,ENE,64,2.0,8.0,28,0.00,,,0.00,8.000000,,2013-03-03 02:01:00,
2013-03-02 20:32:00,45.0,20.0,-100.00,ENE,76,0.0,4.0,36,0.00,,,0.00,0.000000,,2013-03-03 02:32:00,
2013-03-02 20:42:00,45.0,20.0,-100.00,ENE,76,0.0,4.0,36,0.00,,,0.00,0.000000,,2013-03-03 02:42:00,
2013-03-02 20:52:00,45.0,20.0,-100.00,ENE,76,0.0,4.0,36,0.00,,,0.00,0.000000,,2013-03-03 02:52:00,
2013-03-02 21:01:00,45.0,20.0,-100.00,ENE,76,0.0,4.0,36,0.00,,,0.00,0.000000,,2013-03-03 03:01:00,
2013-03-02 21:32:00,44.0,26.0,-100.00,South,183,2.0,4.0,48,0.00,,,0.00,0.000000,,2013-03-03 03:32:00,
2013-03-02 21:42:00,44.0,26.0,-100.00,South,183,2.0,4.0,48,0.00,,,0.00,0.000000,,2013-03-03 03:42:00,
2013-03-02 21:52:00,44.0,26.0,-100.00,South,183,2.0,4.0,48,0.00,,,0.00,0.000000,,2013-03-03 03:52:00,
2013-03-02 22:01:00,44.0,26.0,-100.00,South,183,2.0,4.0,48,0.00,,,0.00,0.000000,,2013-03-03 04:01:00,
2013-03-02 22:32:00,40.0,24.0,-100.00,NE,55,2.0,3.0,52,0.00,,,0.00,0.000000,,2013-03-03 04:32:00,
2013-03-02 22:42:00,40.0,24.0,-100.00,NE,55,2.0,3.0,52,0.00,,,0.00,0.000000,,2013-03-03 04:42:00,
2013-03-02 22:52:00,40.0,24.0,-100.00,NE,55,2.0,3.0,52,0.00,,,0.00,0.000000,,2013-03-03 04:52:00,
2013-03-02 23:02:00,40.0,24.0,-100.00,NE,55,2.0,3.0,52,0.00,,,0.00,0.000000,,2013-03-03 05:02:00,
2013-03-02 23:32:00,37.0,25.0,-100.00,NE,50,3.0,4.0,61,0.00,,,0.00,0.000000,,2013-03-03 05:32:00,
2013-03-02 23:42:00,37.0,25.0,-100.00,NE,50,3.0,4.0,61,0.00,,,0.00,0.000000,,2013-03-03 05:42:00,
2013-03-02 23:52:00,37.0,25.0,-100.00,NE,50,3.0,4.0,61,0.00,,,0.00,0.000000,,2013-03-03 05:52:00,